$DATE,$TIME,DM0600B,DM0602B,DM0604B,DM0614B,DM0616B,DM0618B,DM0624B,DM0628B,DM0630B,DM0634B,DM0606B,DM0608B,DM0610B
12/11/94,00:00:00,23,32,19,15,73,42,111,79,54,0,7,6,8
12/11/94,00:05:00,29,27,20,17,75,43,113,79,52,0,7,6,8
12/11/94,00:10:00,28,24,18,19,73,42,111,79,52,0,7,6,7
12/11/94,00:15:00,46,30,28,19,71,40,107,79,59,0,7,6,7
12/11/94,00:20:00,33,28,28,19,72,41,109,79,63,0,7,6,7
12/11/94,00:25:00,24,25,25,21,74,42,111,79,63,0,7,6,7
12/11/94,00:30:00,21,24,16,20,73,42,111,79,65,0,7,6,7
12/11/94,00:35:00,17,41,20,19,80,45,121,79,65,0,7,6,6
12/11/94,00:40:00,40,28,16,23,79,45,119,79,65,0,8,6,7
12/11/94,00:45:00,34,25,23,23,78,44,118,79,65,0,8,6,6
12/11/94,00:50:00,33,37,19,19,83,48,126,79,63,0,7,6,6
12/11/94,00:55:00,35,32,16,24,79,45,119,79,63,0,7,6,6
12/11/94,01:00:00,33,26,17,22,85,49,129,79,55,0,7,6,6
12/11/94,01:05:00,21,27,19,14,83,47,125,79,55,0,7,6,7
12/11/94,01:10:00,33,25,14,16,91,52,137,79,55,0,7,6,7
12/11/94,01:15:00,26,42,18,11,88,50,133,79,57,0,7,6,7
12/11/94,01:20:00,30,36,16,14,95,54,144,79,57,0,7,6,7
12/11/94,01:25:00,30,32,11,13,100,58,153,78,57,0,7,6,7
12/11/94,01:30:00,23,25,10,10,94,54,145,79,57,0,7,6,7
12/11/94,01:35:00,32,34,14,15,88,50,134,79,55,0,7,6,7
12/11/94,01:40:00,26,29,19,16,98,56,148,79,55,0,7,6,7
12/11/94,01:45:00,25,28,12,11,98,56,148,78,55,0,7,6,7
12/11/94,01:50:00,30,29,19,14,97,56,151,78,55,0,8,6,7
12/11/94,01:55:00,27,33,10,13,98,56,151,78,55,0,8,6,7
12/11/94,02:00:00,16,26,7,5,145,78,205,78,57,0,2,6,7
12/11/94,02:05:00,35,38,17,18,56,51,103,79,57,0,8,7,7
12/11/94,02:10:00,36,36,21,15,66,60,126,78,53,0,8,6,7
12/11/94,02:15:00,35,32,17,13,76,66,138,78,51,0,8,6,8
12/11/94,02:20:00,25,40,25,19,65,56,114,78,51,0,8,6,7
12/11/94,02:25:00,40,42,29,29,47,43,87,79,55,0,7,6,7
12/11/94,02:30:00,27,35,27,25,57,54,111,79,55,0,7,6,7
12/11/94,02:35:00,32,18,20,17,72,70,135,78,55,0,7,6,7
12/11/94,02:40:00,35,38,22,20,58,56,110,78,55,0,7,6,7
12/11/94,02:45:00,33,34,14,20,52,55,103,79,57,0,8,6,7
12/11/94,02:50:00,34,38,19,19,65,73,137,78,57,0,8,6,7
12/11/94,02:55:00,27,24,21,22,64,73,132,78,57,0,8,6,7
12/11/94,03:00:00,29,39,19,20,61,72,128,78,57,0,8,6,7
12/11/94,03:05:00,40,42,22,18,59,68,121,78,55,0,7,7,7
12/11/94,03:10:00,23,38,28,19,57,66,118,78,55,0,7,6,7
12/11/94,03:15:00,37,46,16,23,58,68,121,78,55,0,7,6,8
12/11/94,03:20:00,24,26,21,19,59,69,124,78,55,0,8,6,8
12/11/94,03:25:00,25,30,21,15,59,69,123,78,55,0,7,6,8
12/11/94,03:30:00,31,40,16,19,61,69,124,78,57,0,7,6,7
12/11/94,03:35:00,31,41,19,18,61,68,123,78,57,0,7,6,7
12/11/94,03:40:00,34,43,26,19,57,67,119,78,57,0,7,6,7
12/11/94,03:45:00,34,38,14,16,56,64,115,78,57,0,7,6,7
12/11/94,03:50:00,31,26,19,24,54,62,112,78,55,0,9,6,7
12/11/94,03:55:00,32,45,22,17,57,65,118,78,55,0,8,7,7
12/11/94,04:00:00,39,26,19,23,56,65,117,78,55,0,8,7,7
12/11/94,04:05:00,35,31,24,22,55,62,112,78,55,0,8,7,7
12/11/94,04:10:00,44,40,19,22,49,55,102,78,55,0,8,7,7
12/11/94,04:15:00,30,33,21,21,55,60,111,78,57,0,8,7,7
12/11/94,04:20:00,41,32,30,23,58,62,116,78,57,0,8,6,7
12/11/94,04:25:00,36,27,24,23,57,61,113,78,57,0,8,6,8
12/11/94,04:30:00,38,28,29,22,57,60,113,78,57,0,8,6,7
12/11/94,04:35:00,27,32,20,21,59,61,115,78,55,0,8,6,7
12/11/94,04:40:00,43,27,24,22,57,61,113,79,55,0,8,6,7
12/11/94,04:45:00,41,41,25,21,57,60,115,78,55,0,8,6,7
12/11/94,04:50:00,45,28,29,17,57,60,114,78,55,0,8,7,7
12/11/94,04:55:00,42,31,24,19,54,60,110,79,55,0,9,7,7
12/11/94,05:00:00,37,28,25,24,55,59,109,78,55,0,9,7,7
12/11/94,05:05:00,44,39,19,20,55,59,109,79,57,0,9,6,7
12/11/94,05:10:00,34,31,24,24,55,58,109,79,57,0,9,6,7
12/11/94,05:15:00,49,29,26,25,56,58,110,78,57,0,9,6,7
12/11/94,05:20:00,33,34,23,25,56,57,109,78,57,0,9,6,7
12/11/94,05:25:00,51,36,31,25,57,57,110,79,55,0,8,6,8
12/11/94,05:30:00,42,31,22,25,58,56,109,79,55,0,9,6,8
12/11/94,05:35:00,46,47,24,20,57,55,108,78,55,0,7,6,8
12/11/94,05:40:00,41,31,32,16,56,53,105,79,55,0,9,6,7
12/11/94,05:45:00,47,37,31,24,55,53,104,78,55,0,9,7,8
12/11/94,05:50:00,47,36,30,18,55,53,104,78,55,0,9,7,7
12/11/94,05:55:00,46,42,25,20,54,51,101,79,57,0,9,7,7
12/11/94,06:00:00,45,32,31,20,54,52,102,79,57,0,10,7,7
12/11/94,06:05:00,49,45,22,22,45,43,84,79,57,0,9,6,7
12/11/94,06:10:00,47,38,28,30,36,34,67,79,55,0,8,6,7
12/11/94,06:15:00,50,27,29,28,51,49,96,79,55,0,8,6,7
12/11/94,06:20:00,40,46,22,21,53,50,99,79,55,0,8,6,7
12/11/94,06:25:00,51,37,14,22,51,48,95,79,55,0,8,6,7
12/11/94,06:30:00,48,37,27,27,50,47,93,79,55,0,8,6,8
12/11/94,06:35:00,48,41,36,28,45,42,84,79,55,0,8,6,8
12/11/94,06:40:00,48,32,35,27,48,46,91,79,57,0,8,7,7
12/11/94,06:45:00,45,37,30,23,48,45,90,78,57,0,8,7,8
12/11/94,06:50:00,48,34,31,21,46,44,87,79,57,0,8,7,8
12/11/94,06:55:00,35,34,32,18,46,44,86,79,55,0,8,7,7
12/11/94,07:00:00,49,29,35,24,45,43,85,79,55,0,9,7,7
12/11/94,07:05:00,44,41,34,22,44,42,83,79,55,0,9,7,7
12/11/94,07:10:00,46,37,33,23,43,41,81,78,55,0,9,7,7
12/11/94,07:15:00,49,38,35,27,42,40,79,79,55,0,9,7,7
12/11/94,07:20:00,48,35,33,25,41,39,78,79,55,0,9,7,7
12/11/94,07:25:00,44,39,36,25,40,39,76,79,57,0,9,7,7
12/11/94,07:30:00,46,33,36,25,39,38,75,79,57,0,9,7,7
12/11/94,07:35:00,42,38,33,27,38,37,72,79,57,0,9,7,7
12/11/94,07:40:00,43,28,32,24,38,36,72,79,55,0,9,7,8
12/11/94,07:45:00,32,38,25,22,60,35,92,79,55,0,9,7,8
12/11/94,07:50:00,38,53,40,27,59,35,91,79,55,0,9,7,8
12/11/94,07:55:00,25,29,30,23,57,34,88,79,55,0,9,7,7
12/11/94,08:00:00,38,29,35,25,57,33,87,79,55,0,9,7,7
12/11/94,08:05:00,47,33,33,26,43,26,68,79,55,0,10,7,7
12/11/94,08:10:00,42,33,36,26,44,26,67,79,57,0,10,7,8
12/11/94,08:15:00,38,29,36,21,54,31,83,79,57,0,10,7,7
12/11/94,08:20:00,30,34,27,24,54,32,83,79,57,0,10,7,7
12/11/94,08:25:00,29,29,35,16,49,29,75,79,63,0,10,7,8
12/11/94,08:30:00,27,14,19,13,33,20,52,80,43,0,10,7,7
12/11/94,08:35:00,22,33,37,9,49,29,75,80,43,0,10,7,7
12/11/94,08:40:00,15,20,29,12,50,29,76,80,43,0,10,7,8
12/11/94,08:45:00,6,8,18,10,48,29,74,80,43,0,10,7,8
12/11/94,08:50:00,12,5,6,9,48,28,74,81,44,0,10,7,8
12/11/94,08:55:00,6,8,12,3,48,28,73,81,46,0,10,7,8
12/11/94,09:00:00,0,0,7,3,47,28,72,81,46,0,10,13,8
12/11/94,09:05:00,4,1,8,0,46,27,71,82,46,0,15,24,8
12/11/94,09:10:00,0,0,0,0,45,27,70,82,44,0,20,18,20
12/11/94,09:15:00,0,0,0,0,43,25,66,82,44,0,15,16,16
12/11/94,09:20:00,0,0,0,0,44,26,68,82,44,0,26,26,14
12/11/94,09:25:00,0,0,0,0,44,25,67,82,44,0,19,23,21
12/11/94,09:30:00,0,0,0,0,43,25,66,82,44,0,23,18,14
12/11/94,09:35:00,0,0,0,0,42,24,64,82,44,0,23,28,24
12/11/94,09:40:00,0,0,0,0,42,24,63,83,44,0,20,24,16
12/11/94,09:45:00,0,0,0,0,40,23,61,83,62,0,28,20,26
12/11/94,09:50:00,0,0,0,0,39,23,60,83,62,0,24,30,21
12/11/94,09:55:00,0,0,0,0,39,23,60,83,54,0,26,26,23
12/11/94,10:00:00,0,0,0,0,38,22,59,83,54,0,27,24,28
12/11/94,10:05:00,0,0,0,0,37,22,57,83,53,0,25,33,20
12/11/94,10:10:00,0,0,0,0,37,21,56,83,53,0,30,24,29
12/11/94,10:15:00,0,0,0,0,36,21,56,83,53,0,24,27,26
12/11/94,10:20:00,0,0,0,0,36,21,55,83,53,0,33,34,23
12/11/94,10:25:00,0,0,0,0,35,20,54,83,53,0,26,23,32
12/11/94,10:30:00,0,0,0,0,35,20,53,83,53,0,31,31,24
12/11/94,10:35:00,0,0,0,0,34,20,52,83,55,0,30,31,24
12/11/94,10:40:00,0,0,0,0,34,19,51,83,55,0,28,25,33
12/11/94,10:45:00,0,0,0,0,33,19,51,83,55,0,34,34,29
12/11/94,10:50:00,0,0,0,0,32,19,50,84,54,0,27,29,23
12/11/94,10:55:00,0,0,0,0,32,18,49,83,44,0,34,29,30
12/11/94,11:00:00,0,0,0,0,31,18,48,83,44,0,29,36,30
12/11/94,11:05:00,0,0,0,0,31,18,48,83,44,0,28,25,22
12/11/94,11:10:00,0,0,0,0,30,18,47,83,44,0,34,30,29
12/11/94,11:15:00,0,0,0,0,29,17,45,83,44,0,26,34,31
12/11/94,11:20:00,0,0,0,0,29,17,45,83,46,0,34,25,23
12/11/94,11:25:00,0,0,0,0,29,17,44,83,46,0,31,33,29
12/11/94,11:30:00,0,0,0,0,29,17,45,83,46,0,28,30,33
12/11/94,11:35:00,0,0,0,0,29,17,45,84,46,0,34,28,28
12/11/94,11:40:00,0,0,0,0,28,17,44,83,44,0,27,35,24
12/11/94,11:45:00,0,0,0,0,28,16,43,83,44,0,34,29,31
12/11/94,11:50:00,0,0,0,0,28,16,43,84,45,0,32,30,32
12/11/94,11:55:00,0,0,0,0,28,16,43,84,44,0,27,37,25
12/11/94,12:00:00,0,0,0,0,28,16,43,83,44,0,36,25,29
12/11/94,12:05:00,0,0,0,0,28,16,42,84,45,0,29,33,34
12/11/94,12:10:00,0,0,0,0,28,16,42,84,46,0,31,33,28
12/11/94,12:15:00,0,0,0,0,27,16,42,84,46,0,33,27,26
12/11/94,12:20:00,0,0,0,0,27,16,42,83,46,0,27,35,33
12/11/94,12:25:00,0,0,0,0,27,16,42,84,46,0,36,31,32
12/11/94,12:30:00,0,0,0,0,27,16,42,84,41,0,30,29,27
12/11/94,12:35:00,0,0,0,0,25,14,38,83,41,0,32,37,28
12/11/94,12:40:00,0,0,0,0,23,13,35,84,41,0,34,27,35
12/11/94,12:45:00,0,0,0,0,25,14,38,84,41,0,28,33,31
12/11/94,12:50:00,0,0,0,0,26,15,41,84,41,0,35,35,24
12/11/94,12:55:00,0,0,0,0,26,15,41,83,41,0,31,27,30
12/11/94,13:00:00,0,0,0,0,27,16,41,84,43,0,30,35,34
12/11/94,13:05:00,0,0,0,0,27,16,41,84,43,0,34,31,28
12/11/94,13:10:00,0,0,0,0,27,16,41,84,43,0,27,29,25
12/11/94,13:15:00,0,0,0,0,27,16,42,83,43,0,36,37,32
12/11/94,13:20:00,0,0,0,0,27,16,42,84,41,0,31,26,32
12/11/94,13:25:00,0,0,0,0,27,16,42,84,41,0,29,33,25
12/11/94,13:30:00,0,0,0,0,27,16,42,84,41,0,35,33,27
12/11/94,13:35:00,0,0,0,0,27,16,42,83,41,0,28,27,34
12/11/94,13:40:00,0,0,0,0,28,16,43,83,41,0,32,35,29
12/11/94,13:45:00,0,0,0,0,28,16,43,84,43,0,32,28,24
12/11/94,13:50:00,0,0,0,0,28,17,43,84,43,0,27,30,28
12/11/94,13:55:00,0,0,0,0,28,17,44,84,43,0,35,36,34
12/11/94,14:00:00,0,0,0,0,29,17,44,83,43,0,30,26,30
12/11/94,14:05:00,0,0,0,0,29,17,45,83,43,0,29,34,24
12/11/94,14:10:00,0,0,0,0,29,17,45,84,41,0,35,32,28
12/11/94,14:15:00,0,0,0,0,30,17,46,84,41,0,28,27,33
12/11/94,14:20:00,0,0,0,0,30,18,46,84,41,0,30,35,26
12/11/94,14:25:00,0,0,0,0,30,18,47,83,41,0,32,27,24
12/11/94,14:30:00,0,0,0,0,31,18,47,83,41,0,27,30,31
12/11/94,14:35:00,0,0,0,0,31,18,48,83,41,0,34,35,29
12/11/94,14:40:00,0,0,0,0,32,19,49,84,43,0,27,25,24
12/11/94,14:45:00,0,0,0,0,32,19,50,83,43,0,30,33,25
12/11/94,14:50:00,0,0,0,0,33,19,50,83,43,0,30,30,32
12/11/94,14:55:00,0,0,0,0,33,19,51,84,43,0,25,25,27
12/11/94,15:00:00,0,0,0,0,34,20,52,83,43,0,33,34,23
12/11/94,15:05:00,0,0,0,0,34,20,53,83,41,0,27,27,29
12/11/94,15:10:00,0,0,0,0,35,20,53,83,41,0,28,28,29
12/11/94,15:15:00,0,0,0,0,36,21,55,83,41,0,31,33,21
12/11/94,15:20:00,0,0,0,0,36,21,56,83,41,0,23,23,26
12/11/94,15:25:00,0,0,0,0,37,22,57,83,41,0,32,30,30
12/11/94,15:30:00,0,0,0,0,37,22,58,83,41,0,24,28,21
12/11/94,15:35:00,0,0,0,0,38,22,59,83,43,0,28,24,24
12/11/94,15:40:00,0,0,0,0,39,23,60,83,43,0,28,33,30
12/11/94,15:45:00,0,0,0,0,40,23,61,83,43,0,23,24,20
12/11/94,15:50:00,0,0,0,0,40,24,62,83,43,0,31,27,25
12/11/94,15:55:00,0,0,0,0,41,24,63,83,41,0,21,30,24
12/11/94,16:00:00,0,0,0,0,42,24,64,83,41,0,28,21,21
12/11/94,16:05:00,0,0,0,0,43,25,65,83,41,0,24,30,29
12/11/94,16:10:00,0,0,0,0,43,25,67,83,41,0,23,26,18
12/11/94,16:15:00,0,0,1,0,44,26,68,83,41,0,27,22,25
12/11/94,16:20:00,0,0,0,0,45,26,69,83,41,0,22,30,18
12/11/94,16:25:00,0,0,0,0,46,27,70,83,43,0,27,22,22
12/11/94,16:30:00,0,0,0,0,47,27,72,82,43,0,21,22,19
12/11/94,16:35:00,0,0,0,0,48,28,73,82,42,0,28,30,21
12/11/94,16:40:00,0,0,0,0,49,28,74,83,42,0,19,20,18
12/11/94,16:45:00,0,0,0,0,50,29,76,82,42,0,27,25,21
12/11/94,16:50:00,0,0,0,0,50,29,77,82,41,0,19,26,15
12/11/94,16:55:00,0,0,0,0,51,30,79,82,41,0,26,18,24
12/11/94,17:00:00,0,0,0,0,52,31,80,82,41,0,19,23,16
12/11/94,17:05:00,0,0,1,0,53,31,81,82,41,0,19,26,21
12/11/94,17:10:00,0,0,0,0,54,32,83,82,41,0,22,19,18
12/11/94,17:15:00,0,0,0,0,55,32,85,82,41,0,16,19,13
12/11/94,17:20:00,0,0,0,0,56,33,86,82,42,0,24,27,21
12/11/94,17:25:00,0,0,0,0,57,33,88,82,42,0,18,19,15
12/11/94,17:30:00,0,0,0,0,59,34,89,82,42,0,17,17,13
12/11/94,17:35:00,0,0,0,0,60,35,91,82,42,0,22,26,20
12/11/94,17:40:00,0,0,0,0,61,35,93,81,40,0,16,19,14
12/11/94,17:45:00,0,0,0,0,62,36,94,82,40,0,13,15,12
12/11/94,17:50:00,0,0,0,0,63,37,96,82,40,0,22,21,11
12/11/94,17:55:00,0,0,0,0,64,37,98,82,40,0,18,22,10
12/11/94,18:00:00,0,0,0,0,65,38,99,81,40,0,14,17,10
12/11/94,18:05:00,0,0,0,0,66,38,101,82,40,0,13,14,12
12/11/94,18:10:00,0,0,0,0,67,39,103,81,42,0,21,23,19
12/11/94,18:15:00,0,0,0,0,69,40,104,81,42,0,17,20,14
12/11/94,18:20:00,0,0,0,0,70,40,106,81,42,0,14,15,11
12/11/94,18:25:00,0,0,0,0,71,41,108,81,42,0,12,12,10
12/11/94,18:30:00,0,0,0,0,72,42,110,81,40,0,11,13,10
12/11/94,18:35:00,0,0,2,0,73,42,111,81,40,0,11,23,9
12/11/94,18:40:00,0,0,0,0,75,43,113,81,40,0,11,19,9
12/11/94,18:45:00,0,0,4,0,76,44,115,81,40,0,11,14,9
12/11/94,18:50:00,0,0,0,0,77,44,117,81,40,0,10,12,9
12/11/94,18:55:00,0,0,0,0,78,45,119,81,40,0,10,10,8
12/11/94,19:00:00,0,0,0,0,80,46,121,81,42,0,10,10,9
12/11/94,19:05:00,0,0,0,0,81,46,123,81,42,0,10,19,9
12/11/94,19:10:00,0,0,0,0,82,47,124,81,42,0,10,19,8
12/11/94,19:15:00,0,0,0,0,84,48,126,80,42,0,11,14,9
12/11/94,19:20:00,0,0,0,0,85,49,128,81,40,0,11,12,9
12/11/94,19:25:00,2,4,5,0,86,49,130,80,40,0,10,10,9
12/11/94,19:30:00,0,2,9,0,88,50,132,81,40,0,10,9,8
12/11/94,19:35:00,1,0,0,0,89,51,134,80,40,0,10,9,8
12/11/94,19:40:00,0,0,1,0,90,51,136,80,40,0,9,8,8
12/11/94,19:45:00,0,0,0,0,91,52,138,81,40,0,9,8,8
12/11/94,19:50:00,0,0,0,0,92,53,139,80,42,0,9,8,8
12/11/94,19:55:00,0,0,0,0,93,53,141,80,42,0,9,7,8
12/11/94,20:00:00,0,0,6,0,94,54,142,80,42,0,9,7,8
12/11/94,20:05:00,0,1,2,0,95,54,144,80,42,0,9,8,8
12/11/94,20:10:00,0,0,0,0,96,55,145,80,42,0,9,8,8
12/11/94,20:15:00,1,0,4,0,97,55,147,80,40,0,9,8,8
12/11/94,20:20:00,8,4,7,0,98,56,148,80,40,0,10,7,9
12/11/94,20:25:00,0,0,0,0,99,57,150,80,40,0,9,7,8
12/11/94,20:30:00,0,0,8,0,100,57,151,80,40,0,9,7,8
12/11/94,20:35:00,0,0,0,0,101,58,152,80,40,0,9,7,8
12/11/94,20:40:00,0,0,0,0,102,58,153,80,40,0,9,7,8
12/11/94,20:45:00,0,0,1,0,103,59,155,80,42,0,9,7,8
12/11/94,20:50:00,0,0,1,0,104,59,157,80,42,0,9,7,8
12/11/94,20:55:00,9,0,7,0,105,60,158,80,42,0,9,7,8
12/11/94,21:00:00,1,9,8,0,106,60,160,80,42,0,9,8,8
12/11/94,21:05:00,1,1,5,0,107,61,161,79,40,0,9,8,7
12/11/94,21:10:00,0,0,2,0,107,61,162,80,40,0,9,7,8
12/11/94,21:15:00,0,0,4,0,108,62,163,79,40,0,9,7,8
12/11/94,21:20:00,1,0,1,0,109,62,165,80,40,0,9,8,8
12/11/94,21:25:00,0,3,11,0,110,63,166,79,40,0,10,7,8
12/11/94,21:30:00,0,0,0,0,111,63,167,82,47,0,9,7,8
12/11/94,21:35:00,2,0,2,0,112,64,169,82,49,0,9,7,8
12/11/94,21:40:00,1,2,2,0,113,64,170,82,49,0,9,7,7
12/11/94,21:45:00,10,12,13,0,113,65,171,79,41,0,9,7,7
12/11/94,21:50:00,0,3,3,0,114,65,172,79,41,0,9,7,7
12/11/94,21:55:00,0,0,0,0,115,65,173,79,40,0,9,8,8
12/11/94,22:00:00,0,0,1,0,116,66,174,79,40,0,9,8,8
12/11/94,22:05:00,1,0,2,0,117,66,175,79,40,0,9,8,8
12/11/94,22:10:00,1,1,3,0,117,67,176,79,40,0,9,8,8
12/11/94,22:15:00,2,0,2,0,118,67,177,79,40,0,9,7,8
12/11/94,22:20:00,0,0,0,0,119,68,178,79,40,0,9,7,8
12/11/94,22:25:00,0,0,2,0,119,68,179,79,42,0,10,7,8
12/11/94,22:30:00,0,0,0,0,120,68,180,79,42,0,10,7,9
12/11/94,22:35:00,0,0,0,0,120,68,181,79,42,0,9,7,8
12/11/94,22:40:00,0,0,2,0,121,69,182,79,42,0,9,7,8
12/11/94,22:45:00,0,0,2,0,121,69,183,79,42,0,9,7,7
12/11/94,22:50:00,0,0,0,0,122,70,184,79,40,0,9,8,7
12/11/94,22:55:00,0,0,3,0,122,70,184,79,40,0,9,8,7
12/11/94,23:00:00,0,0,12,0,123,70,185,79,47,0,9,8,7
12/11/94,23:05:00,0,0,2,0,124,70,186,77,40,0,9,7,7
12/11/94,23:10:00,0,0,0,0,124,71,187,77,41,0,9,7,7
12/11/94,23:15:00,0,0,0,0,125,71,188,78,59,0,9,7,7
12/11/94,23:20:00,0,0,0,0,125,71,188,77,55,0,9,7,7
12/11/94,23:25:00,0,0,0,0,125,71,189,77,55,0,9,7,7
12/11/94,23:30:00,6,0,1,0,126,72,189,77,55,0,10,7,7
12/11/94,23:35:00,0,0,0,0,126,72,190,77,55,0,11,7,9
12/11/94,23:40:00,0,0,2,0,127,72,190,81,53,0,10,7,8
12/11/94,23:45:00,0,0,2,0,127,72,191,81,53,0,10,8,8
12/11/94,23:50:00,0,0,0,0,127,72,191,81,53,0,10,8,8
12/11/94,23:55:00,0,0,0,0,127,72,191,81,53,0,10,8,8
12/12/94,00:00:00,0,0,0,0,128,73,192,82,53,0,10,8,8
